Location: Arboucave
(43.6130°N, 0.4343°W)
Time: 13:12:20
(UTC+00:00)

PSLV R/B - Pass Details

Date: 17 November 2025
Orbit: 561 x 589 km, 98.0° (Epoch: 11 December)

Event Time Altitude Azimuth Distance (km) Brightness Sun altitude
Rises 17:46:12 0° 140° (SE) 2,761 6.6 -13.0°
Reaches altitude 10° 17:48:32 10° 129° (SE) 1,864 5.7 -13.4°
Maximum altitude 17:52:02 29° 69° (ENE) 1,048 4.2 -14.0°
Drops below altitude 10° 17:55:32 10° 8° (N) 1,866 5.8 -14.6°
Sets 17:57:52 0° 358° (N) 2,765 6.8 -15.0°
